Location: Unspecified
(0.0000°N, 0.0000°E)
Time: 03:37:17
(UTC+00:00)

Vanguard 1 - Pass Details

Date: 17 December 2023
Orbit: 653 x 3826 km, 34.3° (Epoch: 22 February)

Event Time Altitude Azimuth Distance (km) Brightness Sun altitude
Rises 11:30:08 0° 246° (WSW) 2,961 12.6 65.8°
Reaches altitude 10° 11:32:22 10° 252° (WSW) 2,061 11.9 66.0°
Maximum altitude 11:36:40 46° 327° (NNW) 979 10.5 66.2°
Drops below altitude 10° 11:42:22 10° 40° (NE) 2,728 12.3 66.4°
Sets 11:45:45 0° 46° (NE) 4,062 13.1 66.5°
